N8IR-11 Weather Reports


time (UTC)temp
F
wind
direction
speed
knots
gust
knots
rain 1hr
in
rain 24hr
in
rain mn
in
humidity
%
barometer
mb
20260508195211 60 178 6.1 13.0 0.00 0.00 0.00 72 1008.5
20260508194711 60 218 4.3 10.4 0.00 0.00 0.00 72 1008.6
20260508194211 61 162 6.1 13.0 0.00 0.00 0.00 70 1008.6
20260508193711 61 177 5.2 12.2 0.00 0.00 0.00 69 1008.6
20260508193211 61 200 5.2 7.8 0.00 0.00 0.00 68 1008.7
20260508192711 61 229 7.8 12.2 0.00 0.00 0.00 65 1008.8
20260508192211 62 186 5.2 11.3 0.00 0.00 0.00 63 1008.8
20260508191711 62 196 8.7 14.8 0.00 0.00 0.00 63 1008.8
20260508191211 62 208 4.3 9.6 0.00 0.00 0.00 61 1008.9
20260508190711 62 214 5.2 8.7 0.00 0.00 0.00 61 1009.0
20260508190211 62 206 5.2 9.6 0.00 0.00 0.00 58 1009.1
20260508185711 62 221 3.5 13.9 0.00 0.00 0.00 55 1009.1
20260508185211 62 195 6.1 7.8 0.00 0.00 0.00 57 1009.1
20260508184711 62 188 5.2 11.3 0.00 0.00 0.00 54 1009.2
20260508184211 62 216 3.5 10.4 0.00 0.00 0.00 53 1009.2
20260508183711 61 203 7.0 13.9 0.00 0.00 0.00 55 1009.3
20260508183211 61 200 5.2 13.9 0.00 0.00 0.00 53 1009.4
20260508182731 61 170 5.2 8.7 0.00 0.00 0.00 57 1009.5
20260508182211 61 224 4.3 7.0 0.00 0.00 0.00 59 1009.5
20260508181711 61 206 2.6 9.6 0.00 0.00 0.00 59 1009.5
20260508181211 62 199 4.3 7.0 0.00 0.00 0.00 57 1009.5
20260508180711 62 194 6.1 12.2 0.00 0.00 0.00 60 1009.5
20260508180211 61 207 8.7 9.6 0.00 0.00 0.00 61 1009.6
20260508175711 61 208 5.2 8.7 0.00 0.00 0.00 59 1009.7
20260508175210 62 174 3.5 11.3 0.00 0.00 0.00 59 1009.7
20260508174711 62 189 6.1 13.0 0.00 0.00 0.00 63 1009.7
20260508174210 62 195 1.7 7.8 0.00 0.00 0.00 59 1009.7
20260508173711 61 222 3.5 7.8 0.00 0.00 0.00 59 1009.8
20260508173210 61 209 2.6 4.3 0.00 0.00 0.00 61 1010.1
20260508172731 61 177 5.2 10.4 0.00 0.00 0.00 61 1010.1
20260508172210 62 183 5.2 11.3 0.00 0.00 0.00 61 1010.1
20260508171731 62 210 4.3 7.0 0.00 0.00 0.00 62 1010.0
20260508171211 61 191 3.5 7.0 0.00 0.00 0.00 64 1010.1
20260508170751 61 203 6.1 8.7 0.00 0.00 0.00 64 1010.2
20260508170210 61 190 4.3 8.7 0.00 0.00 0.00 62 1010.3
20260508165710 61 232 0.9 2.6 0.00 0.00 0.00 64 1010.4
20260508165210 60 217 5.2 7.8 0.00 0.00 0.00 66 1010.3
20260508164711 60 349 0.9 2.6 0.00 0.00 0.00 65 1010.4
20260508164211 60 222 5.2 7.8 0.00 0.00 0.00 69 1010.6
20260508163711 59 198 6.1 8.7 0.00 0.00 0.00 68 1010.7
20260508163210 59 173 4.3 7.8 0.00 0.00 0.00 71 1010.7
20260508162711 59 173 1.7 4.3 0.00 0.00 0.00 69 1010.9
20260508162210 58 196 0.9 3.5 0.00 0.00 0.00 69 1011.0
20260508161710 58 198 2.6 6.1 0.00 0.00 0.00 69 1011.1
20260508161230 58 206 4.3 7.0 0.00 0.00 0.00 71 1011.1
20260508160710 58 192 4.3 8.7 0.00 0.00 0.00 70 1011.1
20260508160211 58 169 5.2 10.4 0.00 0.00 0.00 72 1011.2
20260508155710 57 184 5.2 8.7 0.00 0.00 0.00 70 1011.2
20260508155210 58 190 3.5 6.1 0.00 0.00 0.00 71 1011.4
20260508154711 57 213 2.6 7.0 0.00 0.00 0.00 71 1011.3
20260508154210 58 220 4.3 9.6 0.00 0.00 0.00 71 1011.3
20260508153710 58 181 1.7 7.8 0.00 0.00 0.00 72 1011.3
20260508153210 57 200 1.7 3.5 0.00 0.00 0.00 72 1011.2
20260508152710 57 204 4.3 6.1 0.00 0.00 0.00 73 1011.2
20260508152210 56 189 0.9 3.5 0.00 0.00 0.00 73 1011.1
20260508151730 56 216 1.7 3.5 0.00 0.00 0.00 74 1011.2
20260508151210 56 254 1.7 5.2 0.00 0.00 0.00 74 1011.2
20260508150710 56 207 3.5 6.1 0.00 0.00 0.00 74 1011.2
20260508150210 56 225 1.7 3.5 0.00 0.00 0.00 74 1011.3
20260508145731 55 212 2.6 6.1 0.00 0.00 0.00 75 1011.3
20260508145210 55 228 0.9 1.7 0.00 0.00 0.00 74 1011.3
20260508144710 55 248 0.9 3.5 0.00 0.00 0.00 73 1011.3
20260508144210 56 229 1.7 4.3 0.00 0.00 0.00 72 1011.4
20260508143710 56 208 3.5 6.1 0.00 0.00 0.00 73 1011.4
20260508143210 56 178 4.3 7.8 0.00 0.00 0.00 78 1011.4
20260508142710 55 241 1.7 3.5 0.00 0.00 0.00 77 1011.4
20260508142210 55 236 1.7 3.5 0.00 0.00 0.00 76 1011.3
20260508141711 54 243 1.7 4.3 0.00 0.00 0.00 76 1011.3
20260508141210 54 205 0.9 2.6 0.00 0.00 0.00 76 1011.3
20260508140710 55 218 3.5 4.3 0.00 0.00 0.00 75 1011.4
20260508140210 55 241 0.9 1.7 0.00 0.00 0.00 74 1011.5
20260508135710 55 207 4.3 6.1 0.00 0.00 0.00 74 1011.4
20260508135210 56 198 2.6 5.2 0.00 0.00 0.00 74 1011.5
20260508134710 55 176 0.9 1.7 0.00 0.00 0.00 76 1011.6
20260508134210 55 200 0.9 1.7 0.00 0.00 0.00 75 1011.7
20260508133730 55 224 2.6 3.5 0.00 0.00 0.00 75 1011.6
20260508133212 55 320 1.7 4.3 0.00 0.00 0.00 76 1011.7
20260508132712 54 268 1.7 2.6 0.00 0.00 0.00 77 1011.8
20260508132232 54 240 4.3 7.0 0.00 0.00 0.00 78 1011.8
20260508131712 53 2 0.9 2.6 0.00 0.00 0.00 79 1011.6
20260508131212 53 239 2.6 4.3 0.00 0.00 0.00 79 1011.7
20260508130712 53 330 2.6 4.3 0.00 0.00 0.00 80 1011.7
20260508130212 52 237 4.3 7.0 0.00 0.00 0.00 82 1011.7
20260508125732 52 308 0.9 4.3 0.00 0.00 0.00 83 1011.8
20260508125212 51 216 3.5 5.2 0.00 0.00 0.00 84 1011.8
20260508124732 50 216 4.3 5.2 0.00 0.00 0.00 85 1011.9
20260508124212 50 236 0.9 5.2 0.00 0.00 0.00 85 1011.9
20260508123712 50 214 2.6 5.2 0.00 0.00 0.00 86 1012.0
20260508123212 49 237 3.5 7.0 0.00 0.00 0.00 87 1011.8
20260508122713 49 266 0.9 6.1 0.00 0.00 0.00 88 1011.7
20260508122212 48 236 0.9 2.6 0.00 0.00 0.00 88 1011.7
20260508121712 48 195 0.9 3.5 0.00 0.00 0.00 89 1011.8
20260508121212 48 247 0.9 2.6 0.00 0.00 0.00 89 1011.7
20260508120712 47 232 2.6 4.3 0.00 0.00 0.00 90 1011.7
20260508120232 47 206 2.6 4.3 0.00 0.00 0.00 90 1011.7
20260508115732 47 253 2.6 6.1 0.00 0.00 0.00 91 1011.6
20260508115232 47 218 1.7 5.2 0.00 0.00 0.00 91 1011.6
20260508114712 46 231 0.9 1.7 0.00 0.00 0.00 91 1011.5
20260508114212 46 252 1.7 4.3 0.00 0.00 0.00 92 1011.5
20260508113712 45 220 1.7 2.6 0.00 0.00 0.00 91 1011.3
20260508113232 45 220 0.0 1.7 0.00 0.00 0.00 91 1011.1
20260508112712 45 0.0 0.0 0.00 0.00 0.00 91 1011.0
20260508112212 45 0.0 0.9 0.00 0.00 0.00 91 1011.0
20260508111712 45 0.0 0.0 0.00 0.00 0.00 91 1011.1
20260508111212 45 228 0.0 1.7 0.00 0.00 0.00 91 1011.0
20260508110712 45 0.0 0.0 0.00 0.00 0.00 91 1011.0
20260508110252 44 138 0.9 1.7 0.00 0.00 0.00 91 1011.0
20260508105732 44 0.0 0.0 0.00 0.00 0.00 91 1010.9
20260508105232 44 202 0.0 0.9 0.00 0.00 0.00 91 1010.9
20260508104712 44 217 0.0 0.9 0.00 0.00 0.00 90 1010.9
20260508104232 44 0.0 0.0 0.00 0.00 0.00 90 1010.9
20260508103712 44 0.0 0.0 0.00 0.00 0.00 90 1010.8
20260508103212 44 199 0.0 0.9 0.00 0.00 0.00 90 1010.7
20260508102732 44 199 0.0 0.9 0.00 0.00 0.00 90 1010.8
20260508102212 45 0.0 0.0 0.00 0.00 0.00 90 1010.8
20260508101712 45 0.0 0.9 0.00 0.00 0.00 90 1010.7
20260508101212 45 198 0.0 1.7 0.00 0.00 0.00 89 1010.8
20260508100712 45 192 0.0 1.7 0.00 0.00 0.00 89 1010.7
20260508100212 45 0.0 0.0 0.00 0.00 0.00 89 1010.8
20260508095712 45 203 0.0 1.7 0.00 0.00 0.00 89 1010.8
20260508095212 45 0.0 0.0 0.00 0.00 0.00 89 1010.8
20260508094712 45 211 0.0 1.7 0.00 0.00 0.00 89 1010.8
20260508094212 45 199 0.9 2.6 0.00 0.00 0.00 89 1010.8
20260508093712 45 207 0.9 2.6 0.00 0.00 0.00 89 1010.8
20260508093212 45 211 0.0 0.9 0.00 0.00 0.00 89 1010.8
20260508092712 45 220 0.9 1.7 0.00 0.00 0.00 89 1010.9
20260508092212 45 225 0.0 1.7 0.00 0.00 0.00 89 1011.0
20260508091712 45 195 0.9 2.6 0.00 0.00 0.00 89 1010.9
20260508091212 45 190 1.7 2.6 0.00 0.00 0.00 89 1010.8
20260508090732 45 174 1.7 3.5 0.00 0.00 0.00 88 1010.9
20260508090212 45 184 0.9 2.6 0.00 0.00 0.00 88 1011.0
20260508085712 45 187 0.9 2.6 0.00 0.00 0.00 88 1010.9
20260508085252 45 183 0.9 4.3 0.00 0.00 0.00 88 1011.0
20260508084712 45 202 0.9 2.6 0.00 0.00 0.00 88 1011.0
20260508084212 46 220 0.0 1.7 0.00 0.00 0.00 88 1011.0
20260508083712 46 187 0.0 2.6 0.00 0.00 0.00 88 1011.1
20260508083211 46 192 0.9 2.6 0.00 0.00 0.00 88 1011.1
20260508082712 46 190 1.7 2.6 0.00 0.00 0.00 87 1011.1
20260508082212 46 175 0.9 2.6 0.00 0.00 0.00 87 1011.1
20260508081711 46 198 0.9 2.6 0.00 0.00 0.00 87 1011.1
20260508081211 46 163 0.0 2.6 0.00 0.00 0.00 87 1011.1
20260508080712 46 172 0.0 0.9 0.00 0.00 0.00 87 1011.2
20260508080212 46 174 0.0 4.3 0.00 0.00 0.00 87 1011.2
20260508075712 46 189 2.6 5.2 0.00 0.00 0.00 87 1011.2
20260508075212 46 188 0.9 1.7 0.00 0.00 0.00 86 1011.1
20260508074712 46 169 0.0 3.5 0.00 0.00 0.00 87 1011.2
20260508074212 46 205 3.5 5.2 0.00 0.00 0.00 86 1011.2
20260508073711 46 202 1.7 2.6 0.00 0.00 0.00 86 1011.2
20260508073211 46 203 1.7 4.3 0.00 0.00 0.00 86 1011.2
20260508072711 46 178 0.9 2.6 0.00 0.00 0.00 86 1011.2
20260508072212 46 193 0.0 1.7 0.00 0.00 0.00 86 1011.1
20260508071712 46 177 0.0 0.9 0.00 0.00 0.00 85 1011.2
20260508071212 46 182 0.0 1.7 0.00 0.00 0.00 85 1011.2
20260508070712 46 194 2.6 3.5 0.00 0.00 0.00 85 1011.3
20260508070212 46 183 0.9 2.6 0.00 0.00 0.00 85 1011.3
20260508065712 46 172 0.9 2.6 0.00 0.00 0.00 84 1011.3
20260508065212 46 167 0.0 2.6 0.00 0.00 0.00 84 1011.2
20260508064712 46 193 0.9 3.5 0.00 0.00 0.00 84 1011.3
20260508064212 47 0.0 0.0 0.00 0.00 0.00 84 1011.4
20260508063731 47 170 0.9 3.5 0.00 0.00 0.00 83 1011.4
20260508063252 47 173 0.9 2.6 0.00 0.00 0.00 83 1011.5
20260508062711 47 164 0.0 0.9 0.00 0.00 0.00 83 1011.5
20260508062212 47 196 3.5 5.2 0.00 0.00 0.00 83 1011.5
20260508061711 47 189 0.0 0.9 0.00 0.00 0.00 82 1011.6
20260508061231 47 200 1.7 4.3 0.00 0.00 0.00 82 1011.6
20260508060712 47 192 3.5 6.1 0.00 0.00 0.00 82 1011.6
20260508060211 47 203 1.7 7.0 0.00 0.00 0.00 81 1011.8
20260508055712 47 194 3.5 7.8 0.00 0.00 0.00 81 1011.8
20260508055231 47 200 1.7 5.2 0.00 0.00 0.00 80 1011.8
20260508054711 48 191 1.7 5.2 0.00 0.00 0.00 80 1011.8
20260508054211 48 190 2.6 6.1 0.00 0.00 0.00 79 1011.8
20260508053731 48 191 1.7 6.1 0.00 0.00 0.00 79 1011.8
20260508053212 48 208 5.2 8.7 0.00 0.00 0.00 78 1011.9
20260508052711 48 166 4.3 9.6 0.00 0.00 0.00 78 1011.9
20260508052211 48 189 1.7 7.0 0.00 0.00 0.00 77 1011.9
20260508051711 48 189 3.5 7.0 0.00 0.00 0.00 76 1011.9
20260508051211 49 221 5.2 7.8 0.00 0.00 0.00 75 1011.9
20260508050751 49 210 3.5 7.8 0.00 0.00 0.00 75 1011.8
20260508050211 49 197 2.6 5.2 0.00 0.00 0.00 74 1011.8
20260508045711 49 226 2.6 6.1 0.00 0.00 0.00 74 1011.8
20260508045211 49 197 2.6 7.8 0.00 0.00 0.00 74 1011.7
20260508044711 49 205 4.3 7.0 0.00 0.00 0.00 73 1011.8
20260508044211 49 190 3.5 9.6 0.00 0.00 0.00 73 1011.7
20260508043711 49 197 2.6 8.7 0.00 0.00 0.00 73 1011.7
20260508043211 49 187 3.5 7.8 0.00 0.00 0.00 72 1011.6
20260508042711 49 190 1.7 7.0 0.00 0.00 0.00 72 1011.6
20260508042211 49 200 0.9 5.2 0.00 0.00 0.00 72 1011.6
20260508041711 49 193 2.6 4.3 0.00 0.00 0.00 72 1011.6
20260508041211 49 199 3.5 6.1 0.00 0.00 0.00 72 1011.6
20260508040711 49 187 2.6 6.1 0.00 0.00 0.00 72 1011.6
20260508040211 49 174 2.6 5.2 0.00 0.00 0.00 72 1011.6
20260508035712 49 187 7.0 9.6 0.00 0.00 0.00 72 1011.6
20260508035231 49 178 2.6 4.3 0.00 0.00 0.00 72 1011.7
20260508034732 49 192 2.6 3.5 0.00 0.00 0.00 72 1011.7
20260508034211 49 193 3.5 6.1 0.00 0.00 0.00 72 1011.7
20260508033711 49 168 2.6 4.3 0.00 0.00 0.00 72 1011.7
20260508033211 49 200 3.5 5.2 0.00 0.00 0.00 71 1011.8
20260508032711 49 176 1.7 3.5 0.00 0.00 0.00 71 1011.9
20260508032211 49 167 1.7 4.3 0.00 0.00 0.00 71 1011.9
20260508031732 49 185 2.6 5.2 0.00 0.00 0.00 71 1012.0
20260508031211 49 194 0.9 3.5 0.00 0.00 0.00 70 1012.1
20260508030712 49 200 2.6 5.2 0.00 0.00 0.00 70 1012.1
20260508030231 50 197 1.7 5.2 0.00 0.00 0.00 70 1012.1
20260508025731 50 191 1.7 4.3 0.00 0.00 0.00 69 1012.1
20260508025211 50 192 1.7 4.3 0.00 0.00 0.00 69 1012.1
20260508024711 50 204 1.7 4.3 0.00 0.00 0.00 69 1012.2
20260508024211 50 188 0.9 3.5 0.00 0.00 0.00 68 1012.2
20260508023712 50 197 2.6 4.3 0.00 0.00 0.00 67 1012.1
20260508023211 50 188 4.3 6.1 0.00 0.00 0.00 67 1012.1
20260508022752 50 183 4.3 6.1 0.00 0.00 0.00 66 1012.0
20260508022211 50 194 2.6 5.2 0.00 0.00 0.00 66 1011.9
20260508021711 50 182 2.6 4.3 0.00 0.00 0.00 66 1012.0
20260508021211 50 208 3.5 6.1 0.00 0.00 0.00 66 1012.1
20260508020711 50 210 0.9 3.5 0.00 0.00 0.00 66 1012.1
20260508020211 50 206 3.5 5.2 0.00 0.00 0.00 66 1012.1
20260508015751 51 197 3.5 5.2 0.00 0.00 0.00 66 1012.0
20260508015211 51 201 3.5 6.1 0.00 0.00 0.00 65 1012.0
20260508014751 51 184 0.9 7.8 0.00 0.00 0.00 64 1011.9
20260508014211 51 189 2.6 5.2 0.00 0.00 0.00 64 1011.9
20260508013711 51 201 2.6 5.2 0.00 0.00 0.00 64 1011.9
20260508013231 51 202 5.2 7.8 0.00 0.00 0.00 64 1011.9
20260508012711 51 206 4.3 7.0 0.00 0.00 0.00 64 1011.7
20260508012211 51 220 7.0 11.3 0.00 0.00 0.00 63 1011.7
20260508011711 51 223 5.2 14.8 0.00 0.00 0.00 62 1011.7
20260508011211 51 190 6.1 11.3 0.00 0.00 0.00 61 1011.5
20260508010711 51 217 4.3 7.8 0.00 0.00 0.00 61 1011.6
20260508010231 52 201 3.5 7.0 0.00 0.00 0.00 60 1011.6
20260508005731 52 195 3.5 8.7 0.00 0.00 0.00 59 1011.5
20260508005211 52 199 3.5 7.0 0.00 0.00 0.00 58 1011.5
20260508004711 53 204 7.0 12.2 0.00 0.00 0.00 57 1011.4
20260508004211 53 208 7.0 12.2 0.00 0.00 0.00 55 1011.4
20260508003711 53 210 3.5 12.2 0.00 0.00 0.00 54 1011.4
20260508003211 54 223 6.1 13.0 0.00 0.00 0.00 52 1011.3
20260508002711 54 215 6.1 12.2 0.00 0.00 0.00 50 1011.2
20260508002211 55 219 4.3 14.8 0.00 0.00 0.00 49 1011.1
20260508001731 55 222 9.6 13.9 0.00 0.00 0.00 47 1011.1
20260508001231 55 233 7.0 12.2 0.00 0.00 0.00 46 1010.9
20260508000711 55 233 2.6 5.2 0.00 0.00 0.00 46 1011.0
20260508000231 55 240 5.2 8.7 0.00 0.00 0.00 45 1010.9
20260507235731 56 232 4.3 7.8 0.00 0.00 0.00 45 1010.9
20260507235211 56 268 0.9 7.8 0.00 0.00 0.00 44 1010.9
20260507234711 56 224 4.3 10.4 0.00 0.00 0.00 43 1010.9
20260507234211 56 214 2.6 4.3 0.00 0.00 0.00 44 1010.9
20260507233711 56 255 5.2 7.8 0.00 0.00 0.00 43 1010.8
20260507233211 56 254 3.5 7.8 0.00 0.00 0.00 43 1010.9
20260507232711 56 268 1.7 7.8 0.00 0.00 0.00 43 1010.8
20260507232211 56 229 2.6 4.3 0.00 0.00 0.00 42 1010.7
20260507231711 56 324 3.5 7.8 0.00 0.00 0.00 42 1010.9
20260507231211 56 238 4.3 7.0 0.00 0.00 0.00 41 1010.7
20260507230711 57 236 5.2 7.8 0.00 0.00 0.00 43 1010.8
20260507230211 57 264 0.9 1.7 0.00 0.00 0.00 43 1010.8
20260507225711 57 232 2.6 4.3 0.00 0.00 0.00 42 1010.8
20260507225211 57 286 0.0 1.7 0.00 0.00 0.00 42 1010.8
20260507224711 57 264 1.7 3.5 0.00 0.00 0.00 41 1010.8
20260507224211 57 226 2.6 7.8 0.00 0.00 0.00 41 1010.8
20260507223711 57 281 1.7 4.3 0.00 0.00 0.00 42 1010.9
20260507223211 57 237 1.7 3.5 0.00 0.00 0.00 42 1010.9
20260507222711 57 245 4.3 8.7 0.00 0.00 0.00 41 1011.0
20260507222211 57 239 5.2 9.6 0.00 0.00 0.00 42 1011.0
20260507221711 57 261 0.9 3.5 0.00 0.00 0.00 43 1010.9
20260507221211 57 351 0.0 0.9 0.00 0.00 0.00 42 1011.0
20260507220711 57 255 0.9 3.5 0.00 0.00 0.00 40 1010.9
20260507220211 57 284 1.7 6.1 0.00 0.00 0.00 40 1010.9
20260507215711 57 342 1.7 6.1 0.00 0.00 0.00 41 1010.8
20260507215211 57 32 1.7 7.8 0.00 0.00 0.00 41 1010.8
20260507214711 57 311 2.6 5.2 0.00 0.00 0.00 41 1010.9
20260507214231 58 258 5.2 8.7 0.00 0.00 0.00 40 1010.8
20260507213711 58 261 4.3 9.6 0.00 0.00 0.00 38 1010.8
20260507213211 58 267 5.2 9.6 0.00 0.00 0.00 39 1010.8
20260507212711 58 265 1.7 12.2 0.00 0.00 0.00 39 1010.9
20260507212211 58 265 1.7 10.4 0.00 0.00 0.00 40 1010.9
20260507211711 58 251 3.5 10.4 0.00 0.00 0.00 40 1010.8
20260507211211 58 198 1.7 7.8 0.00 0.00 0.00 40 1010.8
20260507210711 58 343 0.9 4.3 0.00 0.00 0.00 41 1010.9
20260507210211 58 342 1.7 5.2 0.00 0.00 0.00 41 1011.0
20260507205711 58 309 6.1 11.3 0.00 0.00 0.00 43 1011.1
20260507205211 58 292 3.5 7.0 0.00 0.00 0.00 41 1011.3
20260507204711 59 264 1.7 12.2 0.00 0.00 0.00 40 1011.1
20260507204211 58 302 1.7 10.4 0.00 0.00 0.00 41 1011.3
20260507203711 59 296 3.5 13.9 0.00 0.00 0.00 40 1011.4
20260507203211 59 265 1.7 7.0 0.00 0.00 0.00 41 1011.4
20260507202711 60 249 2.6 8.7 0.00 0.00 0.00 41 1011.4
20260507202211 59 223 6.1 9.6 0.00 0.00 0.00 42 1011.3
20260507201731 59 286 1.7 6.1 0.00 0.00 0.00 41 1011.4
20260507201231 58 283 2.6 7.8 0.00 0.00 0.00 43 1011.5
20260507200711 58 264 4.3 9.6 0.00 0.00 0.00 44 1011.5
20260507200211 58 335 1.7 7.8 0.00 0.00 0.00 42 1011.5
20260507195751 58 336 3.5 10.4 0.00 0.00 0.00 43 1011.6